When you browse on this site, cookies collect data to enhance your experience and personalize the content and advertising you see.
Visit our Privacy Policy to learn more. By continuing to use the site, you agree to this use of cookies and data.
EN

Hourly Weather Carei

Today, 5 August, Wednesday

Time Temperature Precipitation Wind Pressure Humidity
00:00 +21°C° 0.4 mm 2 mps 747 mmHg 84%
01:00 +20°C° 0.4 mm 2 mps 747 mmHg 88%
02:00 +20°C° 0.2 mm 2 mps 747 mmHg 90%
03:00 +20°C° 0.2 mm 3 mps 747 mmHg 92%
04:00 +19°C° 0.2 mm 3 mps 747 mmHg 94%
05:00 +20°C° 0.1 mm 3 mps 747 mmHg 91%
06:00 +21°C° 0.1 mm 3 mps 747 mmHg 87%
07:00 +22°C° 0.1 mm 3 mps 748 mmHg 84%
08:00 +25°C° 0 mm 3 mps 748 mmHg 77%
09:00 +26°C° 0 mm 3 mps 748 mmHg 70%
10:00 +28°C° 0 mm 3 mps 749 mmHg 63%
11:00 +29°C° 0 mm 3 mps 749 mmHg 59%
12:00 +30°C° 0 mm 3 mps 748 mmHg 55%
13:00 +31°C° 0 mm 3 mps 748 mmHg 51%
14:00 +31°C° 0 mm 3 mps 748 mmHg 53%
15:00 +32°C° 0 mm 4 mps 748 mmHg 54%
16:00 +32°C° 0 mm 4 mps 748 mmHg 56%
17:00 +29°C° 0.8 mm 4 mps 749 mmHg 65%
18:00 +26°C° 0.8 mm 4 mps 749 mmHg 74%
19:00 +23°C° 0.8 mm 4 mps 749 mmHg 83%
20:00 +22°C° 0.8 mm 4 mps 749 mmHg 83%
21:00 +21°C° 0.8 mm 3 mps 750 mmHg 83%
22:00 +21°C° 0.8 mm 3 mps 751 mmHg 83%
23:00 +20°C° 0 mm 3 mps 751 mmHg 83%

Tomorrow, 6 August, Thursday

Time Temperature Precipitation Wind Pressure Humidity
00:00 +20°C° 0 mm 3 mps 751 mmHg 84%
01:00 +19°C° 0 mm 3 mps 751 mmHg 84%
02:00 +19°C° 0 mm 3 mps 751 mmHg 83%
03:00 +19°C° 0 mm 3 mps 751 mmHg 83%
04:00 +18°C° 0 mm 3 mps 751 mmHg 82%
05:00 +20°C° 0 mm 3 mps 751 mmHg 78%
06:00 +21°C° 0 mm 3 mps 752 mmHg 73%
07:00 +22°C° 0 mm 3 mps 752 mmHg 69%
08:00 +25°C° 0 mm 3 mps 752 mmHg 62%
09:00 +27°C° 0 mm 3 mps 752 mmHg 55%
10:00 +29°C° 0 mm 3 mps 753 mmHg 47%
11:00 +30°C° 0 mm 3 mps 752 mmHg 44%
12:00 +31°C° 0 mm 3 mps 752 mmHg 41%
13:00 +33°C° 0 mm 3 mps 752 mmHg 38%
14:00 +33°C° 0 mm 3 mps 752 mmHg 40%
15:00 +33°C° 0 mm 3 mps 752 mmHg 42%
16:00 +32°C° 0 mm 2 mps 752 mmHg 43%
17:00 +30°C° 0 mm 2 mps 752 mmHg 48%
18:00 +29°C° 0 mm 3 mps 753 mmHg 53%
19:00 +27°C° 0 mm 3 mps 753 mmHg 57%
20:00 +26°C° 0 mm 3 mps 753 mmHg 58%
21:00 +25°C° 0 mm 3 mps 754 mmHg 59%
22:00 +24°C° 0 mm 2 mps 754 mmHg 61%
23:00 +23°C° 0 mm 2 mps 754 mmHg 62%

Day after tomorrow, 7 August, Friday

Time Temperature Precipitation Wind Pressure Humidity
00:00 +21°C° 0 mm 2 mps 754 mmHg 64%
01:00 +21°C° 0 mm 2 mps 754 mmHg 65%
02:00 +20°C° 0 mm 2 mps 754 mmHg 67%
03:00 +20°C° 0 mm 2 mps 754 mmHg 68%
04:00 +20°C° 0 mm 2 mps 754 mmHg 70%
05:00 +21°C° 0 mm 2 mps 754 mmHg 68%
06:00 +23°C° 0 mm 2 mps 754 mmHg 67%
07:00 +24°C° 0 mm 2 mps 755 mmHg 65%
08:00 +26°C° 0 mm 2 mps 755 mmHg 61%
09:00 +28°C° 0 mm 2 mps 755 mmHg 56%
10:00 +29°C° 0 mm 2 mps 755 mmHg 52%
11:00 +30°C° 0 mm 2 mps 754 mmHg 48%
12:00 +31°C° 0 mm 2 mps 754 mmHg 45%
13:00 +32°C° 0 mm 2 mps 754 mmHg 42%
14:00 +32°C° 0 mm 2 mps 754 mmHg 42%
15:00 +31°C° 0 mm 2 mps 753 mmHg 43%
16:00 +31°C° 0 mm 2 mps 753 mmHg 43%
17:00 +30°C° 0 mm 2 mps 753 mmHg 47%
18:00 +28°C° 0 mm 2 mps 753 mmHg 52%
19:00 +26°C° 0 mm 2 mps 753 mmHg 56%
20:00 +25°C° 0 mm 2 mps 753 mmHg 59%
21:00 +25°C° 0 mm 2 mps 754 mmHg 62%
22:00 +24°C° 0 mm 2 mps 754 mmHg 65%
23:00 +23°C° 0 mm 2 mps 754 mmHg 67%

8 August, Saturday

Time Temperature Precipitation Wind Pressure Humidity
00:00 +23°C° 0 mm 2 mps 754 mmHg 70%
01:00 +21°C° 0 mm 2 mps 754 mmHg 72%
02:00 +21°C° 0 mm 2 mps 753 mmHg 73%
03:00 +20°C° 0 mm 2 mps 753 mmHg 75%
04:00 +20°C° 0 mm 2 mps 753 mmHg 76%
05:00 +21°C° 0 mm 2 mps 753 mmHg 74%
06:00 +23°C° 0 mm 2 mps 753 mmHg 71%
07:00 +24°C° 0 mm 2 mps 753 mmHg 69%
08:00 +26°C° 0 mm 2 mps 753 mmHg 64%
09:00 +28°C° 0 mm 2 mps 753 mmHg 59%
10:00 +29°C° 0 mm 2 mps 753 mmHg 54%
11:00 +30°C° 0 mm 2 mps 753 mmHg 51%
12:00 +31°C° 0 mm 2 mps 752 mmHg 48%
13:00 +32°C° 0 mm 1 mps 752 mmHg 45%
14:00 +32°C° 0 mm 2 mps 752 mmHg 45%
15:00 +32°C° 0 mm 2 mps 751 mmHg 45%
16:00 +32°C° 0 mm 2 mps 751 mmHg 46%
17:00 +30°C° 0 mm 2 mps 751 mmHg 51%
18:00 +28°C° 0 mm 1 mps 751 mmHg 56%
19:00 +26°C° 0 mm 1 mps 751 mmHg 61%
20:00 +25°C° 0.1 mm 1 mps 751 mmHg 64%
21:00 +24°C° 0.1 mm 2 mps 751 mmHg 67%
22:00 +23°C° 0.1 mm 2 mps 752 mmHg 70%
23:00 +23°C° 0.1 mm 2 mps 751 mmHg 72%

9 August, Sunday

Time Temperature Precipitation Wind Pressure Humidity
00:00 +21°C° 0.1 mm 2 mps 751 mmHg 74%
01:00 +21°C° 0.1 mm 2 mps 751 mmHg 77%
02:00 +20°C° 0 mm 3 mps 751 mmHg 78%
03:00 +20°C° 0 mm 3 mps 751 mmHg 79%
04:00 +19°C° 0 mm 3 mps 751 mmHg 80%
05:00 +20°C° 0 mm 3 mps 751 mmHg 77%
06:00 +22°C° 0 mm 3 mps 751 mmHg 74%
07:00 +24°C° 0 mm 3 mps 751 mmHg 71%
08:00 +25°C° 0 mm 3 mps 751 mmHg 65%
09:00 +27°C° 0 mm 3 mps 751 mmHg 59%
10:00 +29°C° 0 mm 3 mps 751 mmHg 52%
11:00 +29°C° 0 mm 2 mps 751 mmHg 50%
12:00 +30°C° 0 mm 2 mps 750 mmHg 48%
13:00 +31°C° 0 mm 2 mps 750 mmHg 46%
14:00 +31°C° 0 mm 2 mps 750 mmHg 45%
15:00 +31°C° 0 mm 1 mps 750 mmHg 45%
16:00 +31°C° 0 mm 1 mps 749 mmHg 44%
17:00 +29°C° 0 mm 1 mps 749 mmHg 50%
18:00 +27°C° 0 mm 1 mps 750 mmHg 55%
19:00 +25°C° 0 mm 1 mps 750 mmHg 61%
20:00 +24°C° 0 mm 1 mps 750 mmHg 63%
21:00 +24°C° 0 mm 1 mps 750 mmHg 65%
22:00 +23°C° 0 mm 1 mps 750 mmHg 67%
23:00 +22°C° 0.1 mm 1 mps 750 mmHg 69%

10 August, Monday

Time Temperature Precipitation Wind Pressure Humidity
00:00 +22°C° 0.1 mm 1 mps 750 mmHg 72%
01:00 +21°C° 0.1 mm 1 mps 750 mmHg 74%
02:00 +21°C° 0 mm 1 mps 750 mmHg 76%
03:00 +21°C° 0 mm 1 mps 750 mmHg 77%
04:00 +20°C° 0 mm 1 mps 750 mmHg 78%
05:00 +21°C° 0 mm 1 mps 750 mmHg 76%
06:00 +21°C° 0 mm 2 mps 750 mmHg 73%
07:00 +23°C° 0 mm 2 mps 750 mmHg 71%
08:00 +25°C° 0 mm 2 mps 750 mmHg 66%
09:00 +27°C° 0 mm 1 mps 750 mmHg 61%
10:00 +28°C° 0 mm 1 mps 750 mmHg 55%
11:00 +29°C° 0 mm 1 mps 750 mmHg 52%
12:00 +30°C° 0 mm 1 mps 749 mmHg 49%
13:00 +31°C° 0 mm 1 mps 749 mmHg 46%
14:00 +31°C° 0 mm 1 mps 749 mmHg 46%
15:00 +31°C° 0 mm 1 mps 749 mmHg 46%
16:00 +31°C° 0 mm 2 mps 749 mmHg 47%
17:00 +29°C° 0.1 mm 2 mps 749 mmHg 53%
18:00 +27°C° 0.1 mm 2 mps 749 mmHg 60%
19:00 +25°C° 0.1 mm 2 mps 749 mmHg 67%
20:00 +24°C° 0.2 mm 1 mps 749 mmHg 69%
21:00 +24°C° 0.2 mm 1 mps 750 mmHg 71%
22:00 +23°C° 0.2 mm 1 mps 750 mmHg 74%
23:00 +22°C° 0.1 mm 1 mps 750 mmHg 76%
Show more